Time,TemperatureF,DewpointF,PressureIn,WindDirection,WindDirectionDegrees,WindSpeedMPH,WindSpeedGustMPH,Humidity,HourlyPrecipIn,Conditions,Clouds,dailyrainin,SoftwareType,DateUTC
2013-02-05 00:00:00,5.2,0.0,29.52,SSE,157,2.5,5.4,79,0.00,,,0.00,WUHU21623XXSP,2013-02-05 06:00:00,
2013-02-05 00:05:00,5.2,0.0,29.52,SSE,157,4.0,7.8,79,0.00,,,0.00,WUHU21623XXSP,2013-02-05 06:05:00,
2013-02-05 00:10:00,5.4,0.2,29.52,SSE,157,0.5,7.8,79,0.00,,,0.00,WUHU21623XXSP,2013-02-05 06:10:00,
2013-02-05 00:15:00,5.4,0.2,29.52,SSE,157,1.1,4.0,79,0.00,,,0.00,WUHU21623XXSP,2013-02-05 06:15:00,
2013-02-05 00:20:00,5.5,0.4,29.51,SSE,157,0.7,4.5,79,0.00,,,0.00,WUHU21623XXSP,2013-02-05 06:20:00,
2013-02-05 00:25:00,5.5,0.4,29.51,South,180,1.8,5.6,79,0.00,,,0.00,WUHU21623XXSP,2013-02-05 06:25:00,
2013-02-05 00:30:00,5.5,0.4,29.52,SSE,157,1.1,5.6,79,0.00,,,0.00,WUHU21623XXSP,2013-02-05 06:30:00,
2013-02-05 00:35:00,5.5,0.4,29.51,SSE,157,3.1,4.9,79,0.00,,,0.00,WUHU21623XXSP,2013-02-05 06:35:00,
2013-02-05 00:40:00,5.7,0.6,29.52,SSE,157,2.1,4.3,79,0.00,,,0.00,WUHU21623XXSP,2013-02-05 06:40:00,
2013-02-05 00:45:00,5.7,0.6,29.51,SSE,157,0.0,4.0,79,0.00,,,0.00,WUHU21623XXSP,2013-02-05 06:45:00,
2013-02-05 00:50:00,5.9,0.8,29.51,SSE,157,0.0,2.9,79,0.00,,,0.00,WUHU21623XXSP,2013-02-05 06:50:00,
2013-02-05 00:55:00,5.9,0.8,29.51,South,180,0.0,0.0,79,0.00,,,0.00,WUHU21623XXSP,2013-02-05 06:55:00,
2013-02-05 01:00:00,5.9,0.8,29.51,SSE,157,0.0,0.0,79,0.00,,,0.00,WUHU21623XXSP,2013-02-05 07:00:00,
2013-02-05 01:05:00,6.1,0.9,29.50,SSE,157,0.0,0.0,79,0.00,,,0.00,WUHU21623XXSP,2013-02-05 07:05:00,
2013-02-05 01:10:00,6.1,0.9,29.51,SSE,157,0.0,0.0,79,0.00,,,0.00,WUHU21623XXSP,2013-02-05 07:10:00,
2013-02-05 01:15:00,6.1,0.9,29.50,SSE,157,0.0,0.0,79,0.00,,,0.00,WUHU21623XXSP,2013-02-05 07:15:00,
2013-02-05 01:20:00,6.1,0.9,29.50,South,180,0.0,0.0,79,0.00,,,0.00,WUHU21623XXSP,2013-02-05 07:20:00,
2013-02-05 01:25:00,6.4,1.3,29.50,SW,225,0.0,0.0,79,0.00,,,0.00,WUHU21623XXSP,2013-02-05 07:25:00,
2013-02-05 01:30:00,6.4,1.3,29.50,SSE,157,0.0,0.0,79,0.00,,,0.00,WUHU21623XXSP,2013-02-05 07:30:00,
2013-02-05 01:35:00,6.4,1.3,29.50,South,180,0.0,0.0,79,0.00,,,0.00,WUHU21623XXSP,2013-02-05 07:35:00,
2013-02-05 01:40:00,6.4,1.3,29.50,SE,135,0.0,0.0,79,0.00,,,0.00,WUHU21623XXSP,2013-02-05 07:40:00,
2013-02-05 01:45:00,6.4,1.3,29.50,SSE,157,0.0,0.0,79,0.00,,,0.00,WUHU21623XXSP,2013-02-05 07:45:00,
2013-02-05 01:50:00,6.4,1.3,29.50,South,180,0.0,0.0,79,0.00,,,0.00,WUHU21623XXSP,2013-02-05 07:50:00,
2013-02-05 01:55:00,6.4,1.3,29.50,South,180,0.0,0.0,79,0.00,,,0.00,WUHU21623XXSP,2013-02-05 07:55:00,
2013-02-05 02:00:00,6.4,1.3,29.50,SSW,202,0.0,0.0,79,0.00,,,0.00,WUHU21623XXSP,2013-02-05 08:00:00,
2013-02-05 02:05:00,6.4,1.3,29.50,SSE,157,0.0,0.0,79,0.00,,,0.00,WUHU21623XXSP,2013-02-05 08:05:00,
2013-02-05 02:10:00,6.4,1.3,29.50,SSE,157,0.0,0.0,79,0.00,,,0.00,WUHU21623XXSP,2013-02-05 08:10:00,
2013-02-05 02:15:00,6.4,1.3,29.50,SSE,157,0.0,0.0,79,0.00,,,0.00,WUHU21623XXSP,2013-02-05 08:15:00,
2013-02-05 02:20:00,6.4,1.3,29.50,South,180,0.0,0.0,79,0.00,,,0.00,WUHU21623XXSP,2013-02-05 08:20:00,
2013-02-05 02:25:00,6.6,1.5,29.50,South,180,0.0,0.0,79,0.00,,,0.00,WUHU21623XXSP,2013-02-05 08:25:00,
2013-02-05 02:30:00,6.6,1.5,29.49,SSW,202,0.0,0.0,79,0.00,,,0.00,WUHU21623XXSP,2013-02-05 08:30:00,
2013-02-05 02:35:00,6.4,1.3,29.49,SSE,157,0.0,0.0,79,0.00,,,0.00,WUHU21623XXSP,2013-02-05 08:35:00,
2013-02-05 02:40:00,6.6,1.5,29.49,SSW,202,0.0,0.0,79,0.00,,,0.00,WUHU21623XXSP,2013-02-05 08:40:00,
2013-02-05 02:45:00,6.4,1.3,29.49,SSE,157,0.0,0.0,79,0.00,,,0.00,WUHU21623XXSP,2013-02-05 08:45:00,
2013-02-05 02:50:00,6.4,1.3,29.49,South,180,0.0,0.0,79,0.00,,,0.00,WUHU21623XXSP,2013-02-05 08:50:00,
2013-02-05 02:55:00,6.4,1.3,29.49,South,180,0.0,0.0,79,0.00,,,0.00,WUHU21623XXSP,2013-02-05 08:55:00,
2013-02-05 03:00:00,6.4,1.3,29.49,SSW,202,0.0,0.0,79,0.00,,,0.00,WUHU21623XXSP,2013-02-05 09:00:00,
2013-02-05 03:05:00,6.4,1.3,29.49,SSW,202,0.0,0.0,79,0.00,,,0.00,WUHU21623XXSP,2013-02-05 09:05:00,
2013-02-05 03:10:00,6.4,1.3,29.49,SSW,202,0.0,0.0,79,0.00,,,0.00,WUHU21623XXSP,2013-02-05 09:10:00,
2013-02-05 03:15:00,6.4,1.3,29.49,SSW,202,0.0,0.0,79,0.00,,,0.00,WUHU21623XXSP,2013-02-05 09:15:00,
2013-02-05 03:20:00,6.6,1.5,29.49,SSW,202,0.0,0.0,79,0.00,,,0.00,WUHU21623XXSP,2013-02-05 09:20:00,
2013-02-05 03:25:00,6.6,1.8,29.49,SSW,202,0.0,0.0,80,0.00,,,0.00,WUHU21623XXSP,2013-02-05 09:25:00,
2013-02-05 03:30:00,6.6,1.5,29.49,SSW,202,0.0,0.0,79,0.00,,,0.00,WUHU21623XXSP,2013-02-05 09:30:00,
2013-02-05 03:35:00,6.6,1.5,29.49,SSW,202,0.0,0.0,79,0.00,,,0.00,WUHU21623XXSP,2013-02-05 09:35:00,
2013-02-05 03:40:00,6.4,1.6,29.49,SSW,202,0.0,0.0,80,0.00,,,0.00,WUHU21623XXSP,2013-02-05 09:40:00,
2013-02-05 03:45:00,6.4,1.6,29.49,SSW,202,0.0,0.0,80,0.00,,,0.00,WUHU21623XXSP,2013-02-05 09:45:00,
2013-02-05 03:50:00,6.4,1.6,29.49,SSW,202,0.0,0.0,80,0.00,,,0.00,WUHU21623XXSP,2013-02-05 09:50:00,
2013-02-05 03:55:00,6.4,1.6,29.49,SSW,202,0.0,0.0,80,0.00,,,0.00,WUHU21623XXSP,2013-02-05 09:55:00,
2013-02-05 04:00:00,6.4,1.6,29.49,SSW,202,0.0,0.0,80,0.00,,,0.00,WUHU21623XXSP,2013-02-05 10:00:00,
2013-02-05 04:05:00,6.4,1.6,29.49,SSW,202,0.0,0.0,80,0.00,,,0.00,WUHU21623XXSP,2013-02-05 10:05:00,
2013-02-05 04:10:00,6.4,1.6,29.49,SSW,202,0.0,0.0,80,0.00,,,0.00,WUHU21623XXSP,2013-02-05 10:10:00,
2013-02-05 04:15:00,6.4,1.6,29.49,SSW,202,0.0,0.0,80,0.00,,,0.00,WUHU21623XXSP,2013-02-05 10:15:00,
2013-02-05 04:20:00,6.6,1.8,29.49,SSW,202,0.0,0.0,80,0.00,,,0.00,WUHU21623XXSP,2013-02-05 10:20:00,
2013-02-05 04:25:00,6.4,1.6,29.49,SSW,202,0.0,0.0,80,0.00,,,0.00,WUHU21623XXSP,2013-02-05 10:25:00,
2013-02-05 04:30:00,6.4,1.6,29.50,SSW,202,0.0,0.0,80,0.00,,,0.00,WUHU21623XXSP,2013-02-05 10:30:00,
2013-02-05 04:35:00,6.6,1.8,29.50,SSW,202,0.0,0.0,80,0.00,,,0.00,WUHU21623XXSP,2013-02-05 10:35:00,
2013-02-05 04:40:00,6.4,1.6,29.50,SSW,202,0.0,0.0,80,0.00,,,0.00,WUHU21623XXSP,2013-02-05 10:40:00,
2013-02-05 04:45:00,5.9,1.0,29.50,SSW,202,0.0,0.0,80,0.00,,,0.00,WUHU21623XXSP,2013-02-05 10:45:00,
2013-02-05 04:50:00,5.5,0.7,29.51,SSW,202,0.0,0.0,80,0.00,,,0.00,WUHU21623XXSP,2013-02-05 10:50:00,
2013-02-05 04:55:00,5.4,0.5,29.51,SSW,202,0.0,0.0,80,0.00,,,0.00,WUHU21623XXSP,2013-02-05 10:55:00,
2013-02-05 05:00:00,5.0,0.1,29.51,SSW,202,0.0,0.0,80,0.00,,,0.00,WUHU21623XXSP,2013-02-05 11:00:00,
2013-02-05 05:05:00,4.8,0.0,29.51,SSW,202,0.0,0.0,80,0.00,,,0.00,WUHU21623XXSP,2013-02-05 11:05:00,
2013-02-05 05:10:00,4.6,-0.2,29.51,SSW,202,0.0,0.0,80,0.00,,,0.00,WUHU21623XXSP,2013-02-05 11:10:00,
2013-02-05 05:15:00,4.5,-0.4,29.51,SSW,202,0.0,0.0,80,0.00,,,0.00,WUHU21623XXSP,2013-02-05 11:15:00,
2013-02-05 05:20:00,3.9,-0.9,29.51,SSW,202,0.0,0.0,80,0.00,,,0.00,WUHU21623XXSP,2013-02-05 11:20:00,
2013-02-05 05:25:00,3.9,-0.9,29.51,SSW,202,0.0,0.0,80,0.00,,,0.00,WUHU21623XXSP,2013-02-05 11:25:00,
2013-02-05 05:30:00,3.9,-0.9,29.52,SSW,202,0.0,0.0,80,0.00,,,0.00,WUHU21623XXSP,2013-02-05 11:30:00,
2013-02-05 05:35:00,3.9,-0.9,29.52,SSW,202,0.0,0.0,80,0.00,,,0.00,WUHU21623XXSP,2013-02-05 11:35:00,
2013-02-05 05:40:00,4.3,-0.6,29.52,West,270,0.0,0.0,80,0.00,,,0.00,WUHU21623XXSP,2013-02-05 11:40:00,
2013-02-05 05:45:00,4.3,-0.6,29.52,West,270,0.0,0.0,80,0.00,,,0.00,WUHU21623XXSP,2013-02-05 11:45:00,
2013-02-05 05:50:00,4.3,-0.6,29.53,WNW,292,0.0,0.0,80,0.00,,,0.00,WUHU21623XXSP,2013-02-05 11:50:00,
2013-02-05 05:55:00,4.3,-0.6,29.53,NW,315,0.0,0.0,80,0.00,,,0.00,WUHU21623XXSP,2013-02-05 11:55:00,
2013-02-05 06:00:00,4.8,0.2,29.53,NW,315,0.0,0.0,81,0.00,,,0.00,WUHU21623XXSP,2013-02-05 12:00:00,
2013-02-05 06:05:00,5.0,0.1,29.54,NNW,337,0.0,0.0,80,0.00,,,0.00,WUHU21623XXSP,2013-02-05 12:05:00,
2013-02-05 06:10:00,4.8,-0.3,29.54,NNW,337,0.0,0.0,79,0.00,,,0.00,WUHU21623XXSP,2013-02-05 12:10:00,
2013-02-05 06:15:00,4.5,-0.7,29.54,NNW,337,0.0,0.0,79,0.00,,,0.00,WUHU21623XXSP,2013-02-05 12:15:00,
2013-02-05 06:20:00,4.1,-1.0,29.54,NNW,337,0.0,0.0,79,0.00,,,0.00,WUHU21623XXSP,2013-02-05 12:20:00,
2013-02-05 06:25:00,3.9,-1.2,29.54,NNW,337,0.0,0.0,79,0.00,,,0.00,WUHU21623XXSP,2013-02-05 12:25:00,
2013-02-05 06:30:00,3.7,-1.4,29.55,NNW,337,0.0,0.0,79,0.00,,,0.00,WUHU21623XXSP,2013-02-05 12:30:00,
2013-02-05 06:35:00,3.4,-1.8,29.55,NNW,337,0.0,0.0,79,0.00,,,0.00,WUHU21623XXSP,2013-02-05 12:35:00,
2013-02-05 06:40:00,2.8,-2.3,29.55,NNW,337,0.0,0.0,79,0.00,,,0.00,WUHU21623XXSP,2013-02-05 12:40:00,
2013-02-05 06:45:00,3.0,-1.8,29.55,NNW,337,0.0,0.0,80,0.00,,,0.00,WUHU21623XXSP,2013-02-05 12:45:00,
2013-02-05 06:50:00,2.8,-2.3,29.56,NNW,337,0.0,0.0,79,0.00,,,0.00,WUHU21623XXSP,2013-02-05 12:50:00,
2013-02-05 06:55:00,2.8,-2.3,29.56,NNW,337,0.0,0.0,79,0.00,,,0.00,WUHU21623XXSP,2013-02-05 12:55:00,
2013-02-05 07:00:00,2.8,-2.0,29.57,NNW,337,0.0,0.0,80,0.00,,,0.00,WUHU21623XXSP,2013-02-05 13:00:00,
2013-02-05 07:05:00,2.8,-2.3,29.57,NNW,337,0.0,0.0,79,0.00,,,0.00,WUHU21623XXSP,2013-02-05 13:05:00,
2013-02-05 07:10:00,2.3,-2.8,29.57,NW,315,0.0,0.0,79,0.00,,,0.00,WUHU21623XXSP,2013-02-05 13:10:00,
2013-02-05 07:15:00,2.3,-2.8,29.57,NW,315,0.0,0.0,79,0.00,,,0.00,WUHU21623XXSP,2013-02-05 13:15:00,
2013-02-05 07:20:00,2.3,-2.6,29.58,NW,315,0.0,0.0,80,0.00,,,0.00,WUHU21623XXSP,2013-02-05 13:20:00,
2013-02-05 07:25:00,2.3,-2.6,29.58,NW,315,0.0,0.0,80,0.00,,,0.00,WUHU21623XXSP,2013-02-05 13:25:00,
2013-02-05 07:30:00,2.3,-2.6,29.58,NW,315,0.0,0.0,80,0.00,,,0.00,WUHU21623XXSP,2013-02-05 13:30:00,
2013-02-05 07:35:00,2.3,-2.6,29.59,NW,315,0.0,0.0,80,0.00,,,0.00,WUHU21623XXSP,2013-02-05 13:35:00,
2013-02-05 07:40:00,2.1,-3.0,29.59,NW,315,0.0,0.0,79,0.00,,,0.00,WUHU21623XXSP,2013-02-05 13:40:00,
2013-02-05 07:45:00,1.9,-3.2,29.59,NW,315,0.0,0.0,79,0.00,,,0.00,WUHU21623XXSP,2013-02-05 13:45:00,
2013-02-05 07:50:00,1.6,-3.6,29.60,NW,315,0.0,0.0,79,0.00,,,0.00,WUHU21623XXSP,2013-02-05 13:50:00,
2013-02-05 07:55:00,1.2,-3.9,29.60,NW,315,0.0,0.0,79,0.00,,,0.00,WUHU21623XXSP,2013-02-05 13:55:00,
2013-02-05 08:00:00,1.8,-3.1,29.60,NW,315,0.0,0.0,80,0.00,,,0.00,WUHU21623XXSP,2013-02-05 14:00:00,
2013-02-05 08:05:00,1.4,-3.7,29.61,NW,315,0.0,0.0,79,0.00,,,0.00,WUHU21623XXSP,2013-02-05 14:05:00,
2013-02-05 08:10:00,1.2,-3.9,29.61,NW,315,0.0,0.0,79,0.00,,,0.00,WUHU21623XXSP,2013-02-05 14:10:00,
2013-02-05 08:15:00,1.2,-3.6,29.61,NW,315,0.0,0.0,80,0.00,,,0.00,WUHU21623XXSP,2013-02-05 14:15:00,
2013-02-05 08:20:00,1.2,-3.9,29.61,WNW,292,0.0,0.0,79,0.00,,,0.00,WUHU21623XXSP,2013-02-05 14:20:00,
2013-02-05 08:25:00,1.2,-3.9,29.61,NW,315,0.0,0.0,79,0.00,,,0.00,WUHU21623XXSP,2013-02-05 14:25:00,
2013-02-05 08:30:00,1.6,-3.6,29.62,NW,315,0.0,0.0,79,0.00,,,0.00,WUHU21623XXSP,2013-02-05 14:30:00,
2013-02-05 08:35:00,1.4,-3.7,29.62,NW,315,0.0,0.0,79,0.00,,,0.00,WUHU21623XXSP,2013-02-05 14:35:00,
2013-02-05 08:40:00,1.2,-3.9,29.62,NW,315,0.0,0.0,79,0.00,,,0.00,WUHU21623XXSP,2013-02-05 14:40:00,
2013-02-05 08:45:00,1.4,-3.7,29.63,NW,315,0.0,0.0,79,0.00,,,0.00,WUHU21623XXSP,2013-02-05 14:45:00,
2013-02-05 08:50:00,1.6,-3.6,29.63,NW,315,0.0,0.0,79,0.00,,,0.00,WUHU21623XXSP,2013-02-05 14:50:00,
2013-02-05 08:55:00,1.8,-3.4,29.63,NW,315,0.0,0.0,79,0.00,,,0.00,WUHU21623XXSP,2013-02-05 14:55:00,
2013-02-05 09:00:00,2.1,-3.0,29.64,WNW,292,0.0,0.0,79,0.00,,,0.00,WUHU21623XXSP,2013-02-05 15:00:00,
2013-02-05 09:05:00,2.8,-2.6,29.64,West,270,0.0,0.0,78,0.00,,,0.00,WUHU21623XXSP,2013-02-05 15:05:00,
2013-02-05 09:10:00,3.0,-2.4,29.64,NNW,337,0.0,0.0,78,0.00,,,0.00,WUHU21623XXSP,2013-02-05 15:10:00,
2013-02-05 09:15:00,3.7,-1.7,29.65,NW,315,0.0,0.0,78,0.00,,,0.00,WUHU21623XXSP,2013-02-05 15:15:00,
2013-02-05 09:20:00,3.9,-1.5,29.65,WNW,292,0.0,0.0,78,0.00,,,0.00,WUHU21623XXSP,2013-02-05 15:20:00,
2013-02-05 09:25:00,4.1,-1.8,29.65,NNW,337,0.0,0.0,77,0.00,,,0.00,WUHU21623XXSP,2013-02-05 15:25:00,
2013-02-05 09:30:00,4.8,-0.9,29.65,WNW,292,0.0,0.0,77,0.00,,,0.00,WUHU21623XXSP,2013-02-05 15:30:00,
2013-02-05 09:35:00,5.5,-0.2,29.66,NW,315,0.0,0.0,77,0.00,,,0.00,WUHU21623XXSP,2013-02-05 15:35:00,
2013-02-05 09:40:00,5.7,0.0,29.66,West,270,0.0,0.0,77,0.00,,,0.00,WUHU21623XXSP,2013-02-05 15:40:00,
2013-02-05 09:45:00,6.1,0.1,29.66,WNW,292,0.0,0.0,76,0.00,,,0.00,WUHU21623XXSP,2013-02-05 15:45:00,
2013-02-05 09:50:00,6.6,0.6,29.67,NNW,337,0.0,0.0,76,0.00,,,0.00,WUHU21623XXSP,2013-02-05 15:50:00,
2013-02-05 09:55:00,7.2,0.9,29.67,NNW,337,0.0,0.0,75,0.00,,,0.00,WUHU21623XXSP,2013-02-05 15:55:00,
2013-02-05 10:00:00,7.2,0.6,29.67,NNW,337,0.0,0.0,74,0.00,,,0.00,WUHU21623XXSP,2013-02-05 16:00:00,
2013-02-05 10:05:00,7.9,1.0,29.67,NW,315,0.0,0.0,73,0.00,,,0.00,WUHU21623XXSP,2013-02-05 16:05:00,
2013-02-05 10:10:00,8.2,1.1,29.68,WNW,292,0.0,0.0,72,0.00,,,0.00,WUHU21623XXSP,2013-02-05 16:10:00,
2013-02-05 10:15:00,8.2,1.4,29.68,North,0,0.0,0.0,73,0.00,,,0.00,WUHU21623XXSP,2013-02-05 16:15:00,
2013-02-05 10:20:00,8.8,1.6,29.68,NNW,337,0.0,0.0,72,0.00,,,0.00,WUHU21623XXSP,2013-02-05 16:20:00,
2013-02-05 10:25:00,9.7,2.1,29.68,NW,315,0.0,0.0,71,0.00,,,0.00,WUHU21623XXSP,2013-02-05 16:25:00,
2013-02-05 10:30:00,9.1,1.9,29.69,NW,315,0.0,0.0,72,0.00,,,0.00,WUHU21623XXSP,2013-02-05 16:30:00,
2013-02-05 10:35:00,9.7,1.8,29.69,NW,315,0.0,0.0,70,0.00,,,0.00,WUHU21623XXSP,2013-02-05 16:35:00,
2013-02-05 10:40:00,9.3,1.5,29.69,NW,315,0.0,0.0,70,0.00,,,0.00,WUHU21623XXSP,2013-02-05 16:40:00,
2013-02-05 10:45:00,9.7,2.1,29.70,NW,315,0.0,0.0,71,0.00,,,0.00,WUHU21623XXSP,2013-02-05 16:45:00,
2013-02-05 10:50:00,9.7,1.8,29.70,NW,315,0.0,0.0,70,0.00,,,0.00,WUHU21623XXSP,2013-02-05 16:50:00,
2013-02-05 10:55:00,9.7,1.5,29.70,NW,315,0.0,0.0,69,0.00,,,0.00,WUHU21623XXSP,2013-02-05 16:55:00,
2013-02-05 11:00:00,10.2,2.0,29.71,NW,315,0.0,0.0,69,0.00,,,0.00,WUHU21623XXSP,2013-02-05 17:00:00,
2013-02-05 11:05:00,10.0,1.5,29.71,NW,312,4.9,10.7,68,0.00,,,0.00,WUHU21623XXSP,2013-02-05 17:05:00,
2013-02-05 11:10:00,10.9,2.7,29.71,NNW,337,5.4,10.7,69,0.00,,,0.00,WUHU21623XXSP,2013-02-05 17:10:00,
2013-02-05 11:15:00,11.1,2.5,29.71,WNW,301,1.7,6.9,68,0.00,,,0.00,WUHU21623XXSP,2013-02-05 17:15:00,
2013-02-05 11:20:00,11.5,3.2,29.72,NNW,333,5.5,6.7,69,0.00,,,0.00,WUHU21623XXSP,2013-02-05 17:20:00,
2013-02-05 11:25:00,12.0,3.8,29.72,WNW,300,3.8,6.5,69,0.00,,,0.00,WUHU21623XXSP,2013-02-05 17:25:00,
2013-02-05 11:31:00,11.8,3.6,29.72,NW,309,4.8,6.7,69,0.00,,,0.00,WUHU21623XXSP,2013-02-05 17:31:00,
2013-02-05 11:36:00,12.0,3.1,29.72,WNW,292,3.6,8.3,67,0.00,,,0.00,WUHU21623XXSP,2013-02-05 17:36:00,
2013-02-05 11:41:00,12.9,4.3,29.72,NW,315,4.9,8.3,68,0.00,,,0.00,WUHU21623XXSP,2013-02-05 17:41:00,
2013-02-05 11:46:00,13.3,4.0,29.72,WNW,292,5.6,9.2,66,0.00,,,0.00,WUHU21623XXSP,2013-02-05 17:46:00,
2013-02-05 11:51:00,11.7,2.7,29.73,NW,315,6.9,12.1,67,0.00,,,0.00,WUHU21623XXSP,2013-02-05 17:51:00,
2013-02-05 11:56:00,12.0,3.8,29.73,NW,312,3.9,12.1,69,0.00,,,0.00,WUHU21623XXSP,2013-02-05 17:56:00,
2013-02-05 12:01:00,12.7,4.5,29.73,NW,325,3.8,8.7,69,0.00,,,0.00,WUHU21623XXSP,2013-02-05 18:01:00,
2013-02-05 12:06:00,12.9,4.0,29.73,North,0,4.5,9.8,67,0.00,,,0.00,WUHU21623XXSP,2013-02-05 18:06:00,
2013-02-05 12:11:00,12.9,4.0,29.73,NW,315,6.3,9.8,67,0.00,,,0.00,WUHU21623XXSP,2013-02-05 18:11:00,
2013-02-05 12:16:00,12.9,3.6,29.73,NNW,337,7.4,12.3,66,0.00,,,0.00,WUHU21623XXSP,2013-02-05 18:16:00,
2013-02-05 12:21:00,12.9,3.6,29.73,NW,315,7.8,13.4,66,0.00,,,0.00,WUHU21623XXSP,2013-02-05 18:21:00,
2013-02-05 12:26:00,12.7,3.5,29.74,WNW,295,4.8,13.4,66,0.00,,,0.00,WUHU21623XXSP,2013-02-05 18:26:00,
2013-02-05 12:31:00,12.7,3.5,29.74,WNW,298,5.7,9.2,66,0.00,,,0.00,WUHU21623XXSP,2013-02-05 18:31:00,
2013-02-05 12:36:00,13.3,3.6,29.74,NW,315,8.3,9.2,65,0.00,,,0.00,WUHU21623XXSP,2013-02-05 18:36:00,
2013-02-05 12:41:00,12.7,3.1,29.74,NW,306,6.9,10.1,65,0.00,,,0.00,WUHU21623XXSP,2013-02-05 18:41:00,
2013-02-05 12:46:00,12.7,3.1,29.75,WNW,292,9.8,10.1,65,0.00,,,0.00,WUHU21623XXSP,2013-02-05 18:46:00,
2013-02-05 12:51:00,13.1,3.1,29.75,NW,306,8.3,13.2,64,0.00,,,0.00,WUHU21623XXSP,2013-02-05 18:51:00,
2013-02-05 12:56:00,12.9,2.9,29.75,NW,306,7.4,13.2,64,0.00,,,0.00,WUHU21623XXSP,2013-02-05 18:56:00,
2013-02-05 13:01:00,13.3,3.3,29.74,WNW,300,4.8,11.9,64,0.00,,,0.00,WUHU21623XXSP,2013-02-05 19:01:00,
2013-02-05 13:06:00,13.3,2.6,29.75,WNW,298,6.5,11.9,62,0.00,,,0.00,WUHU21623XXSP,2013-02-05 19:06:00,
2013-02-05 13:11:00,13.6,3.0,29.75,NW,315,9.4,11.0,62,0.00,,,0.00,WUHU21623XXSP,2013-02-05 19:11:00,
2013-02-05 13:16:00,13.8,3.5,29.75,NW,315,4.3,9.4,63,0.00,,,0.00,WUHU21623XXSP,2013-02-05 19:16:00,
2013-02-05 13:21:00,14.2,3.5,29.75,NW,315,5.9,9.8,62,0.00,,,0.00,WUHU21623XXSP,2013-02-05 19:21:00,
2013-02-05 13:26:00,13.8,2.8,29.75,NW,315,4.0,9.8,61,0.00,,,0.00,WUHU21623XXSP,2013-02-05 19:26:00,
2013-02-05 13:31:00,13.3,2.3,29.75,NW,315,4.7,8.9,61,0.00,,,0.00,WUHU21623XXSP,2013-02-05 19:31:00,
2013-02-05 13:36:00,13.8,3.2,29.75,WNW,302,3.6,8.9,62,0.00,,,0.00,WUHU21623XXSP,2013-02-05 19:36:00,
2013-02-05 13:41:00,13.8,3.5,29.75,NW,308,6.5,12.3,63,0.00,,,0.00,WUHU21623XXSP,2013-02-05 19:41:00,
2013-02-05 13:46:00,13.6,2.6,29.75,NW,315,8.9,15.9,61,0.00,,,0.00,WUHU21623XXSP,2013-02-05 19:46:00,
2013-02-05 13:51:00,12.4,0.6,29.75,WNW,294,5.7,15.9,59,0.00,,,0.00,WUHU21623XXSP,2013-02-05 19:51:00,
2013-02-05 13:56:00,12.0,0.7,29.75,WNW,295,6.6,17.7,60,0.00,,,0.00,WUHU21623XXSP,2013-02-05 19:56:00,
2013-02-05 14:01:00,12.4,1.0,29.76,NW,310,6.7,17.7,60,0.00,,,0.00,WUHU21623XXSP,2013-02-05 20:01:00,
2013-02-05 14:06:00,12.4,1.0,29.76,NW,315,5.4,12.8,60,0.00,,,0.00,WUHU21623XXSP,2013-02-05 20:06:00,
2013-02-05 14:11:00,12.7,1.7,29.76,WNW,292,11.4,12.8,61,0.00,,,0.00,WUHU21623XXSP,2013-02-05 20:11:00,
2013-02-05 14:16:00,12.4,1.4,29.76,NW,317,5.4,11.9,61,0.00,,,0.00,WUHU21623XXSP,2013-02-05 20:16:00,
2013-02-05 14:21:00,12.7,1.7,29.76,NW,318,4.9,10.7,61,0.00,,,0.00,WUHU21623XXSP,2013-02-05 20:21:00,
2013-02-05 14:26:00,12.9,2.6,29.76,NNW,337,4.9,9.2,63,0.00,,,0.00,WUHU21623XXSP,2013-02-05 20:26:00,
2013-02-05 14:31:00,13.3,2.3,29.76,NW,308,4.3,10.5,61,0.00,,,0.00,WUHU21623XXSP,2013-02-05 20:31:00,
2013-02-05 14:36:00,13.3,1.9,29.76,WNW,291,5.2,10.5,60,0.00,,,0.00,WUHU21623XXSP,2013-02-05 20:36:00,
2013-02-05 14:41:00,13.1,1.8,29.77,WNW,290,5.3,10.3,60,0.00,,,0.00,WUHU21623XXSP,2013-02-05 20:41:00,
2013-02-05 14:47:00,12.7,1.4,29.77,NW,315,9.6,15.2,60,0.00,,,0.00,WUHU21623XXSP,2013-02-05 20:47:00,
2013-02-05 14:52:00,12.9,1.2,29.78,NW,312,5.9,15.2,59,0.00,,,0.00,WUHU21623XXSP,2013-02-05 20:52:00,
2013-02-05 14:57:00,12.9,1.6,29.77,WNW,292,5.1,9.4,60,0.00,,,0.00,WUHU21623XXSP,2013-02-05 20:57:00,
2013-02-05 15:01:00,12.7,1.4,29.77,NW,315,5.1,9.4,60,0.00,,,0.00,WUHU21623XXSP,2013-02-05 21:01:00,
2013-02-05 15:06:00,12.7,1.7,29.77,NW,315,7.2,8.7,61,0.00,,,0.00,WUHU21623XXSP,2013-02-05 21:06:00,
2013-02-05 15:11:00,13.1,1.8,29.77,WNW,303,5.4,8.7,60,0.00,,,0.00,WUHU21623XXSP,2013-02-05 21:11:00,
2013-02-05 15:16:00,12.6,0.4,29.78,WNW,300,4.1,7.6,58,0.00,,,0.00,WUHU21623XXSP,2013-02-05 21:16:00,
2013-02-05 15:21:00,12.2,0.1,29.78,WNW,292,6.7,13.0,58,0.00,,,0.00,WUHU21623XXSP,2013-02-05 21:21:00,
2013-02-05 15:26:00,12.2,-0.3,29.78,WNW,294,4.3,16.1,57,0.00,,,0.00,WUHU21623XXSP,2013-02-05 21:26:00,
2013-02-05 15:31:00,12.0,-0.4,29.79,WNW,300,6.4,16.1,57,0.00,,,0.00,WUHU21623XXSP,2013-02-05 21:31:00,
2013-02-05 15:36:00,11.8,-0.6,29.79,NW,304,7.5,13.4,57,0.00,,,0.00,WUHU21623XXSP,2013-02-05 21:36:00,
2013-02-05 15:41:00,12.0,-0.4,29.80,NW,305,9.6,13.4,57,0.00,,,0.00,WUHU21623XXSP,2013-02-05 21:41:00,
2013-02-05 15:46:00,12.0,-0.4,29.80,West,270,8.3,12.8,57,0.00,,,0.00,WUHU21623XXSP,2013-02-05 21:46:00,
2013-02-05 15:51:00,12.0,-0.4,29.80,NW,315,11.0,11.4,57,0.00,,,0.00,WUHU21623XXSP,2013-02-05 21:51:00,
2013-02-05 15:56:00,11.5,0.2,29.80,WNW,292,8.1,13.6,60,0.00,,,0.00,WUHU21623XXSP,2013-02-05 21:56:00,
2013-02-05 16:01:00,11.1,-0.5,29.80,WNW,292,7.0,13.6,59,0.00,,,0.00,WUHU21623XXSP,2013-02-05 22:01:00,
2013-02-05 16:06:00,11.1,-0.1,29.80,WNW,299,4.1,13.4,60,0.00,,,0.00,WUHU21623XXSP,2013-02-05 22:06:00,
2013-02-05 16:11:00,10.9,-1.0,29.80,NW,315,5.4,12.1,58,0.00,,,0.00,WUHU21623XXSP,2013-02-05 22:11:00,
2013-02-05 16:16:00,10.8,-1.6,29.81,NW,310,4.8,9.8,57,0.00,,,0.00,WUHU21623XXSP,2013-02-05 22:16:00,
2013-02-05 16:21:00,10.2,-1.7,29.81,WNW,303,6.2,8.9,58,0.00,,,0.00,WUHU21623XXSP,2013-02-05 22:21:00,
2013-02-05 16:26:00,10.2,-1.7,29.81,NNW,337,8.7,10.3,58,0.00,,,0.00,WUHU21623XXSP,2013-02-05 22:26:00,
2013-02-05 16:31:00,10.2,-1.3,29.81,NW,304,8.0,12.1,59,0.00,,,0.00,WUHU21623XXSP,2013-02-05 22:31:00,
2013-02-05 16:36:00,10.2,-1.3,29.81,NW,315,4.7,12.1,59,0.00,,,0.00,WUHU21623XXSP,2013-02-05 22:36:00,
2013-02-05 16:41:00,10.0,-1.1,29.81,WNW,300,4.2,8.3,60,0.00,,,0.00,WUHU21623XXSP,2013-02-05 22:41:00,
2013-02-05 16:46:00,9.7,-1.5,29.81,WNW,292,5.1,7.4,60,0.00,,,0.00,WUHU21623XXSP,2013-02-05 22:46:00,
2013-02-05 16:51:00,9.5,-1.7,29.82,NW,314,3.9,8.1,60,0.00,,,0.00,WUHU21623XXSP,2013-02-05 22:51:00,
2013-02-05 16:56:00,9.0,-2.2,29.82,NW,307,4.0,8.5,60,0.00,,,0.00,WUHU21623XXSP,2013-02-05 22:56:00,
2013-02-05 17:01:00,8.4,-2.4,29.82,NW,315,4.7,8.5,61,0.00,,,0.00,WUHU21623XXSP,2013-02-05 23:01:00,
2013-02-05 17:06:00,8.4,-2.7,29.82,WNW,292,2.9,5.4,60,0.00,,,0.00,WUHU21623XXSP,2013-02-05 23:06:00,
2013-02-05 17:11:00,7.7,-3.0,29.82,NW,310,3.8,5.4,61,0.00,,,0.00,WUHU21623XXSP,2013-02-05 23:11:00,
2013-02-05 17:16:00,7.5,-3.9,29.83,WNW,301,3.3,5.8,59,0.00,,,0.00,WUHU21623XXSP,2013-02-05 23:16:00,
2013-02-05 17:21:00,7.2,-4.2,29.82,WNW,292,3.1,6.7,59,0.00,,,0.00,WUHU21623XXSP,2013-02-05 23:21:00,
2013-02-05 17:26:00,7.2,-4.6,29.83,WNW,292,5.1,8.7,58,0.00,,,0.00,WUHU21623XXSP,2013-02-05 23:26:00,
2013-02-05 17:31:00,6.6,-5.1,29.83,NW,309,6.0,10.1,58,0.00,,,0.00,WUHU21623XXSP,2013-02-05 23:31:00,
2013-02-05 17:36:00,6.6,-5.5,29.83,WNW,292,4.4,10.1,57,0.00,,,0.00,WUHU21623XXSP,2013-02-05 23:36:00,
2013-02-05 17:41:00,6.6,-5.9,29.83,NW,310,5.7,9.6,56,0.00,,,0.00,WUHU21623XXSP,2013-02-05 23:41:00,
2013-02-05 17:46:00,6.6,-5.5,29.83,WNW,292,6.9,9.6,57,0.00,,,0.00,WUHU21623XXSP,2013-02-05 23:46:00,
2013-02-05 17:51:00,6.6,-6.3,29.83,NW,315,5.3,8.1,55,0.00,,,0.00,WUHU21623XXSP,2013-02-05 23:51:00,
2013-02-05 17:56:00,6.6,-6.3,29.83,NW,315,5.6,7.8,55,0.00,,,0.00,WUHU21623XXSP,2013-02-05 23:56:00,
2013-02-05 18:02:00,6.6,-6.3,29.83,NW,306,5.1,7.6,55,0.00,,,0.00,WUHU21623XXSP,2013-02-06 00:02:00,
2013-02-05 18:07:00,6.6,-6.3,29.83,NNW,337,4.3,6.9,55,0.00,,,0.00,WUHU21623XXSP,2013-02-06 00:07:00,
2013-02-05 18:12:00,6.1,-6.4,29.83,NW,315,4.9,6.9,56,0.00,,,0.00,WUHU21623XXSP,2013-02-06 00:12:00,
2013-02-05 18:17:00,6.1,-6.0,29.83,NW,317,4.4,6.0,57,0.00,,,0.00,WUHU21623XXSP,2013-02-06 00:17:00,
2013-02-05 18:22:00,6.1,-6.0,29.84,NNW,331,5.1,7.2,57,0.00,,,0.00,WUHU21623XXSP,2013-02-06 00:22:00,
2013-02-05 18:27:00,5.7,-6.0,29.84,NW,315,5.6,8.7,58,0.00,,,0.00,WUHU21623XXSP,2013-02-06 00:27:00,
2013-02-05 18:32:00,5.5,-5.8,29.83,NW,315,4.0,8.7,59,0.00,,,0.00,WUHU21623XXSP,2013-02-06 00:32:00,
2013-02-05 18:37:00,5.4,-6.0,29.84,NW,315,5.1,6.0,59,0.00,,,0.00,WUHU21623XXSP,2013-02-06 00:37:00,
2013-02-05 18:42:00,5.4,-6.0,29.84,NW,315,3.6,5.8,59,0.00,,,0.00,WUHU21623XXSP,2013-02-06 00:42:00,
2013-02-05 18:47:00,5.2,-5.8,29.85,WNW,292,4.9,6.7,60,0.00,,,0.00,WUHU21623XXSP,2013-02-06 00:47:00,
2013-02-05 18:52:00,5.0,-6.3,29.85,NW,315,3.6,6.7,59,0.00,,,0.00,WUHU21623XXSP,2013-02-06 00:52:00,
2013-02-05 18:57:00,3.9,-7.3,29.85,NW,315,3.4,5.4,59,0.00,,,0.00,WUHU21623XXSP,2013-02-06 00:57:00,
2013-02-05 19:02:00,2.1,-7.7,29.85,NW,315,3.8,4.5,63,0.00,,,0.00,WUHU21623XXSP,2013-02-06 01:02:00,
2013-02-05 19:07:00,2.3,-7.2,29.85,NW,315,1.5,3.8,64,0.00,,,0.00,WUHU21623XXSP,2013-02-06 01:07:00,
2013-02-05 19:12:00,1.8,-8.1,29.85,NW,315,0.0,2.9,63,0.00,,,0.00,WUHU21623XXSP,2013-02-06 01:12:00,
2013-02-05 19:17:00,1.9,-7.9,29.85,NW,315,0.0,2.0,63,0.00,,,0.00,WUHU21623XXSP,2013-02-06 01:17:00,
2013-02-05 19:22:00,2.5,-7.3,29.85,NW,315,0.0,0.0,63,0.00,,,0.00,WUHU21623XXSP,2013-02-06 01:22:00,
2013-02-05 19:27:00,2.8,-7.3,29.85,NW,315,0.0,0.0,62,0.00,,,0.00,WUHU21623XXSP,2013-02-06 01:27:00,
2013-02-05 19:32:00,3.0,-6.2,29.85,NW,315,1.3,1.6,65,0.00,,,0.00,WUHU21623XXSP,2013-02-06 01:32:00,
2013-02-05 19:37:00,2.8,-6.7,29.85,NW,315,1.8,2.2,64,0.00,,,0.00,WUHU21623XXSP,2013-02-06 01:37:00,
2013-02-05 19:42:00,2.8,-7.0,29.85,NW,315,1.3,2.9,63,0.00,,,0.00,WUHU21623XXSP,2013-02-06 01:42:00,
2013-02-05 19:47:00,1.6,-8.2,29.85,NW,315,0.0,2.9,63,0.00,,,0.00,WUHU21623XXSP,2013-02-06 01:47:00,
2013-02-05 19:52:00,1.0,-8.1,29.85,NW,315,0.0,1.6,65,0.00,,,0.00,WUHU21623XXSP,2013-02-06 01:52:00,
2013-02-05 19:57:00,1.6,-7.0,29.85,NW,315,0.9,1.3,67,0.00,,,0.00,WUHU21623XXSP,2013-02-06 01:57:00,
2013-02-05 20:02:00,2.3,-6.9,29.85,NW,315,0.0,1.1,65,0.00,,,0.00,WUHU21623XXSP,2013-02-06 02:02:00,
2013-02-05 20:07:00,2.8,-6.3,29.85,NW,315,1.1,1.6,65,0.00,,,0.00,WUHU21623XXSP,2013-02-06 02:07:00,
2013-02-05 20:12:00,2.8,-6.3,29.85,NW,315,0.9,1.6,65,0.00,,,0.00,WUHU21623XXSP,2013-02-06 02:12:00,
2013-02-05 20:17:00,2.3,-6.6,29.85,NW,315,0.9,1.8,66,0.00,,,0.00,WUHU21623XXSP,2013-02-06 02:17:00,
2013-02-05 20:22:00,2.1,-6.4,29.85,NW,315,0.7,2.0,67,0.00,,,0.00,WUHU21623XXSP,2013-02-06 02:22:00,
2013-02-05 20:27:00,2.5,-6.1,29.86,NW,315,0.0,2.0,67,0.00,,,0.00,WUHU21623XXSP,2013-02-06 02:27:00,
2013-02-05 20:32:00,1.2,-7.6,29.86,NW,315,0.0,0.7,66,0.00,,,0.00,WUHU21623XXSP,2013-02-06 02:32:00,
2013-02-05 20:37:00,1.2,-7.6,29.86,NW,315,0.0,0.0,66,0.00,,,0.00,WUHU21623XXSP,2013-02-06 02:37:00,
2013-02-05 20:42:00,1.4,-7.5,29.86,NW,315,0.0,0.0,66,0.00,,,0.00,WUHU21623XXSP,2013-02-06 02:42:00,
2013-02-05 20:47:00,0.9,-7.7,29.86,NW,315,0.0,0.0,67,0.00,,,0.00,WUHU21623XXSP,2013-02-06 02:47:00,
2013-02-05 20:52:00,1.2,-7.3,29.86,NW,315,0.0,0.0,67,0.00,,,0.00,WUHU21623XXSP,2013-02-06 02:52:00,
2013-02-05 20:57:00,1.4,-7.1,29.86,NW,315,0.0,0.0,67,0.00,,,0.00,WUHU21623XXSP,2013-02-06 02:57:00,
2013-02-05 21:02:00,1.2,-7.3,29.86,NW,315,0.0,0.0,67,0.00,,,0.00,WUHU21623XXSP,2013-02-06 03:02:00,
2013-02-05 21:07:00,1.2,-7.3,29.86,NW,315,0.0,0.0,67,0.00,,,0.00,WUHU21623XXSP,2013-02-06 03:07:00,
2013-02-05 21:12:00,1.2,-7.3,29.87,NW,315,0.0,0.0,67,0.00,,,0.00,WUHU21623XXSP,2013-02-06 03:12:00,
2013-02-05 21:17:00,0.9,-7.3,29.87,NW,315,0.0,0.0,68,0.00,,,0.00,WUHU21623XXSP,2013-02-06 03:17:00,
2013-02-05 21:22:00,0.3,-7.9,29.87,NW,315,0.0,0.0,68,0.00,,,0.00,WUHU21623XXSP,2013-02-06 03:22:00,
2013-02-05 21:27:00,0.1,-7.7,29.87,NW,315,0.0,0.0,69,0.00,,,0.00,WUHU21623XXSP,2013-02-06 03:27:00,
2013-02-05 21:32:00,-0.2,-8.1,29.88,NW,315,0.0,0.0,69,0.00,,,0.00,WUHU21623XXSP,2013-02-06 03:32:00,
2013-02-05 21:37:00,-0.8,-8.0,29.88,NW,315,0.0,0.0,71,0.00,,,0.00,WUHU21623XXSP,2013-02-06 03:37:00,
2013-02-05 21:42:00,-1.8,-9.0,29.88,NW,315,0.9,0.9,71,0.00,,,0.00,WUHU21623XXSP,2013-02-06 03:42:00,
2013-02-05 21:47:00,-1.5,-8.4,29.88,NW,315,0.0,0.9,72,0.00,,,0.00,WUHU21623XXSP,2013-02-06 03:47:00,
2013-02-05 21:52:00,-1.7,-8.8,29.88,NW,315,0.0,0.9,71,0.00,,,0.00,WUHU21623XXSP,2013-02-06 03:52:00,
2013-02-05 21:57:00,-2.2,-9.0,29.88,NW,315,0.0,0.0,72,0.00,,,0.00,WUHU21623XXSP,2013-02-06 03:57:00,
2013-02-05 22:02:00,-2.0,-8.9,29.88,NW,315,1.1,1.1,72,0.00,,,0.00,WUHU21623XXSP,2013-02-06 04:02:00,
2013-02-05 22:07:00,-2.4,-9.2,29.88,NW,315,1.8,1.8,72,0.00,,,0.00,WUHU21623XXSP,2013-02-06 04:07:00,
2013-02-05 22:12:00,-2.9,-9.8,29.88,NW,315,0.0,1.8,72,0.00,,,0.00,WUHU21623XXSP,2013-02-06 04:12:00,
2013-02-05 22:17:00,-2.9,-9.5,29.88,NW,315,0.0,1.6,73,0.00,,,0.00,WUHU21623XXSP,2013-02-06 04:17:00,
2013-02-05 22:22:00,-3.1,-9.7,29.87,NW,315,0.6,1.1,73,0.00,,,0.00,WUHU21623XXSP,2013-02-06 04:22:00,
2013-02-05 22:27:00,-3.3,-9.9,29.87,NW,315,0.0,1.1,73,0.00,,,0.00,WUHU21623XXSP,2013-02-06 04:27:00,
2013-02-05 22:32:00,-4.2,-10.5,29.87,NW,315,0.0,0.7,74,0.00,,,0.00,WUHU21623XXSP,2013-02-06 04:32:00,
2013-02-05 22:37:00,-4.4,-10.7,29.87,NW,315,0.0,0.7,74,0.00,,,0.00,WUHU21623XXSP,2013-02-06 04:37:00,
2013-02-05 22:42:00,-3.6,-9.7,29.87,NW,315,0.0,0.9,75,0.00,,,0.00,WUHU21623XXSP,2013-02-06 04:42:00,
2013-02-05 22:47:00,-3.5,-9.8,29.87,NW,315,0.0,0.9,74,0.00,,,0.00,WUHU21623XXSP,2013-02-06 04:47:00,
2013-02-05 22:52:00,-3.6,-9.9,29.87,NW,315,0.0,0.0,74,0.00,,,0.00,WUHU21623XXSP,2013-02-06 04:52:00,
2013-02-05 22:57:00,-4.2,-10.5,29.87,NW,315,0.0,0.0,74,0.00,,,0.00,WUHU21623XXSP,2013-02-06 04:57:00,
2013-02-05 23:00:00,-4.7,-11.3,29.87,NW,315,0.0,0.0,73,0.00,,,0.00,WUHU21623XXSP,2013-02-06 05:00:00,
2013-02-05 23:05:00,-4.9,-10.9,29.88,NW,315,0.0,0.0,75,0.00,,,0.00,WUHU21623XXSP,2013-02-06 05:05:00,
2013-02-05 23:10:00,-5.3,-11.3,29.88,NW,315,0.0,0.0,75,0.00,,,0.00,WUHU21623XXSP,2013-02-06 05:10:00,
2013-02-05 23:15:00,-4.9,-10.8,29.88,NW,315,0.0,0.0,76,0.00,,,0.00,WUHU21623XXSP,2013-02-06 05:15:00,
2013-02-05 23:20:00,-4.7,-10.8,29.88,NW,315,0.0,0.0,75,0.00,,,0.00,WUHU21623XXSP,2013-02-06 05:20:00,
2013-02-05 23:25:00,-5.3,-11.3,29.89,NW,315,0.0,0.0,75,0.00,,,0.00,WUHU21623XXSP,2013-02-06 05:25:00,
2013-02-05 23:30:00,-5.3,-11.3,29.89,NW,315,0.0,0.0,75,0.00,,,0.00,WUHU21623XXSP,2013-02-06 05:30:00,
2013-02-05 23:35:00,-5.4,-11.2,29.90,NW,315,0.0,0.0,76,0.00,,,0.00,WUHU21623XXSP,2013-02-06 05:35:00,
2013-02-05 23:40:00,-5.4,-11.5,29.90,NW,315,0.0,0.0,75,0.00,,,0.00,WUHU21623XXSP,2013-02-06 05:40:00,
2013-02-05 23:45:00,-5.4,-11.2,29.90,NW,315,0.0,0.0,76,0.00,,,0.00,WUHU21623XXSP,2013-02-06 05:45:00,
2013-02-05 23:50:00,-4.4,-9.9,29.90,NW,315,0.0,0.0,77,0.00,,,0.00,WUHU21623XXSP,2013-02-06 05:50:00,
2013-02-05 23:55:00,-4.7,-10.8,29.90,NW,315,0.0,0.0,75,0.00,,,0.00,WUHU21623XXSP,2013-02-06 05:55:00,